EW9431 Weather Reports


Display with metric or nautical units.
time (UTC)temp
F
wind
direction
speed
MPH
gust
MPH
rain 1hr
in
rain 24hr
in
rain mn
in
humidity
%
barometer
mb
20260503215548 77 180 3.0 7.0 0.00 0.00 0.00 38 1011.9
20260503215045 77 182 4.0 9.0 0.00 0.00 0.00 36 1011.9
20260503214544 77 172 3.0 9.0 0.00 0.00 0.00 36 1012.0
20260503214043 77 168 3.0 7.0 0.00 0.00 0.00 36 1012.0
20260503213543 77 207 2.0 7.0 0.00 0.00 0.00 38 1012.1
20260503213045 76 223 2.0 8.0 0.00 0.00 0.00 37 1012.2
20260503212541 76 216 4.0 8.0 0.00 0.00 0.00 36 1012.2
20260503212040 76 206 3.0 8.0 0.00 0.00 0.00 37 1012.2
20260503211539 76 203 4.0 7.0 0.00 0.00 0.00 37 1012.3
20260503211038 76 196 4.0 8.0 0.00 0.00 0.00 38 1012.4
20260503210538 76 249 3.0 9.0 0.00 0.00 0.00 37 1012.5
20260503210037 76 199 3.0 9.0 0.00 0.00 0.00 38 1012.5
20260503205537 76 175 4.0 9.0 0.00 0.00 0.00 37 1012.5
20260503205036 76 201 4.0 8.0 0.00 0.00 0.00 38 1012.6
20260503204537 76 179 5.0 7.0 0.00 0.00 0.00 38 1012.6
20260503204035 76 180 5.0 9.0 0.00 0.00 0.00 39 1012.7
20260503203535 76 220 2.0 8.0 0.00 0.00 0.00 41 1012.7
20260503203037 76 201 3.0 8.0 0.00 0.00 0.00 41 1012.8
20260503202534 76 181 3.0 8.0 0.00 0.00 0.00 40 1012.8
20260503202033 76 286 3.0 9.0 0.00 0.00 0.00 39 1012.9
20260503201532 76 203 2.0 9.0 0.00 0.00 0.00 40 1013.1
20260503201030 76 162 5.0 8.0 0.00 0.00 0.00 39 1013.1
20260503200530 76 215 4.0 9.0 0.00 0.00 0.00 40 1013.1
20260503200030 76 213 5.0 9.0 0.00 0.00 0.00 40 1013.2
20260503195528 76 231 5.0 9.0 0.00 0.00 0.00 41 1013.2
20260503195027 76 214 4.0 8.0 0.00 0.00 0.00 41 1013.2
20260503194526 75 224 4.0 7.0 0.00 0.00 0.00 42 1013.3
20260503194025 75 266 2.0 8.0 0.00 0.00 0.00 42 1013.3
20260503193525 74 223 3.0 6.0 0.00 0.00 0.00 43 1013.4
20260503193038 74 191 2.0 6.0 0.00 0.00 0.00 43 1013.5
20260503192521 74 205 2.0 6.0 0.00 0.00 0.00 40 1013.6
20260503192020 75 262 2.0 8.0 0.00 0.00 0.00 41 1013.6
20260503191538 74 212 4.0 8.0 0.00 0.00 0.00 42 1013.6
20260503191018 74 212 3.0 7.0 0.00 0.00 0.00 43 1013.7
20260503190516 74 176 4.0 7.0 0.00 0.00 0.00 43 1013.8
20260503190027 74 216 1.0 7.0 0.00 0.00 0.00 42 1013.9
20260503185516 74 166 3.0 6.0 0.00 0.00 0.00 43 1013.9
20260503185013 74 199 3.0 7.0 0.00 0.00 0.00 44 1013.9
20260503184513 74 181 3.0 8.0 0.00 0.00 0.00 43 1014.0
20260503184012 73 173 4.0 8.0 0.00 0.00 0.00 44 1013.9
20260503183515 73 262 2.0 8.0 0.00 0.00 0.00 45 1013.9
20260503183009 73 143 3.0 7.0 0.00 0.00 0.00 44 1014.0
20260503182509 73 226 4.0 7.0 0.00 0.00 0.00 45 1014.0
20260503182007 72 203 4.0 7.0 0.00 0.00 0.00 44 1014.0
20260503181505 72 139 3.0 9.0 0.00 0.00 0.00 44 1014.0
20260503181003 72 172 3.0 9.0 0.00 0.00 0.00 46 1014.0
20260503180501 72 172 3.0 7.0 0.00 0.00 0.00 44 1013.9
20260503180005 72 199 2.0 7.0 0.00 0.00 0.00 46 1014.0
20260503175600 72 157 4.0 8.0 0.00 0.00 0.00 47 1014.0
20260503175058 71 167 2.0 7.0 0.00 0.00 0.00 47 1014.1
20260503174559 70 205 2.0 7.0 0.00 0.00 0.00 46 1014.1
20260503174056 70 187 2.0 7.0 0.00 0.00 0.00 48 1014.1
20260503173554 69 146 3.0 7.0 0.00 0.00 0.00 49 1014.1
20260503173058 69 233 3.0 6.0 0.00 0.00 0.00 50 1014.1
20260503172551 69 232 1.0 6.0 0.00 0.00 0.00 52 1014.1
20260503172050 68 199 2.0 6.0 0.00 0.00 0.00 53 1014.2
20260503171550 68 205 1.0 4.0 0.00 0.00 0.00 53 1014.2
20260503171048 68 213 2.0 4.0 0.00 0.00 0.00 54 1014.2
20260503170546 67 219 1.0 6.0 0.00 0.00 0.00 55 1014.2
20260503150514 57 175 0.0 2.0 0.00 0.00 0.00 67 1014.8
20260503131058 56 351 0.0 2.0 0.00 0.00 0.00 63 1014.5
20260503130557 56 338 0.0 5.0 0.00 0.00 0.00 63 1014.4
20260503110545 57 5 2.0 6.0 0.00 0.00 0.00 59 1014.6
20260503110144 57 30 3.0 6.0 0.00 0.00 0.00 58 1014.6
20260503081513 64 24 5.0 9.0 0.00 0.00 0.00 44 1014.4
20260503081012 64 330 4.0 9.0 0.00 0.00 0.00 44 1014.3
20260503080512 64 20 4.0 12.0 0.00 0.00 0.00 44 1014.2
20260503072509 64 343 4.0 11.0 0.00 0.00 0.00 46 1014.3
20260503072006 64 20 4.0 11.0 0.00 0.00 0.00 45 1014.2
20260503071505 64 10 6.0 11.0 0.00 0.00 0.00 45 1014.2
20260503071003 64 16 6.0 10.0 0.00 0.00 0.00 46 1014.2
20260503070502 65 300 4.0 10.0 0.00 0.00 0.00 45 1014.2
20260503055056 68 309 5.0 16.0 0.00 0.00 0.00 41 1013.8
20260503054611 68 334 7.0 16.0 0.00 0.00 0.00 41 1013.7
20260503054056 67 350 9.0 15.0 0.00 0.00 0.00 41 1013.7
20260503053555 67 360 8.0 14.0 0.00 0.00 0.00 42 1013.7
20260503053055 67 334 7.0 14.0 0.00 0.00 0.00 43 1013.7
20260503052555 67 10 7.0 14.0 0.00 0.00 0.00 43 1013.7
20260503052054 67 5 7.0 14.0 0.00 0.00 0.00 43 1013.7
20260503051553 67 18 8.0 13.0 0.00 0.00 0.00 44 1013.7
20260503051053 67 341 6.0 14.0 0.00 0.00 0.00 44 1013.7
20260503050552 67 5 8.0 14.0 0.00 0.00 0.00 44 1013.7
20260503050052 67 29 7.0 12.0 0.00 0.00 0.00 45 1013.7
20260503045551 68 19 7.0 15.0 0.00 0.00 0.00 45 1013.6
20260503045051 68 20 7.0 15.0 0.00 0.00 0.00 45 1013.7
20260503044552 68 33 8.0 13.0 0.00 0.00 0.00 45 1013.7
20260503044052 68 360 6.0 14.0 0.00 0.00 0.00 45 1013.7
20260503043551 68 5 6.0 14.0 0.00 0.00 0.00 45 1013.7
20260503043055 68 10 7.0 13.0 0.00 0.00 0.00 45 1013.6
20260503042552 68 5 7.0 11.0 0.00 0.00 0.00 45 1013.6
20260503042050 68 27 5.0 11.0 0.00 0.00 0.00 44 1013.6
20260503041550 68 10 5.0 10.0 0.00 0.00 0.00 45 1013.5
20260503041053 68 10 4.0 11.0 0.00 0.00 0.00 45 1013.5
20260503040548 68 14 6.0 11.0 0.00 0.00 0.00 46 1013.5
20260503040049 68 16 5.0 12.0 0.00 0.00 0.00 47 1013.4
20260503035545 67 14 5.0 12.0 0.00 0.00 0.00 48 1013.4
20260503035045 67 5 4.0 9.0 0.00 0.00 0.00 50 1013.3
20260503034548 68 350 3.0 8.0 0.00 0.00 0.00 51 1013.3
20260503034044 68 360 3.0 8.0 0.00 0.00 0.00 51 1013.2
20260503033543 68 31 3.0 8.0 0.00 0.00 0.00 55 1013.2
20260503033043 68 45 2.0 3.0 0.00 0.00 0.00 57 1013.1
20260503032543 69 40 1.0 3.0 0.00 0.00 0.00 60 1013.1
20260503032043 69 327 0.0 2.0 0.00 0.00 0.00 60 1013.1
20260503031543 70 327 0.0 2.0 0.00 0.00 0.00 60 1013.1
20260503031043 70 327 0.0 2.0 0.00 0.00 0.00 59 1013.0
20260503030543 71 327 0.0 2.0 0.00 0.00 0.00 58 1013.0
20260503030041 71 271 0.0 2.0 0.00 0.00 0.00 57 1013.0
20260503025541 72 271 0.0 2.0 0.00 0.00 0.00 56 1012.9
20260503025040 73 271 0.0 2.0 0.00 0.00 0.00 56 1012.9
20260503024541 74 271 0.0 1.0 0.00 0.00 0.00 52 1012.9
20260503024040 75 271 0.0 2.0 0.00 0.00 0.00 50 1012.9
20260503023540 75 271 0.0 2.0 0.00 0.00 0.00 49 1012.9
20260503023043 76 271 0.0 2.0 0.00 0.00 0.00 47 1012.9
20260503022539 77 271 0.0 3.0 0.00 0.00 0.00 47 1012.9
20260503022038 77 250 1.0 3.0 0.00 0.00 0.00 47 1012.9
20260503021538 77 221 1.0 4.0 0.00 0.00 0.00 47 1012.9
20260503021038 78 216 2.0 4.0 0.00 0.00 0.00 47 1012.8
20260503020538 78 213 1.0 4.0 0.00 0.00 0.00 47 1012.8
20260503020037 78 205 2.0 4.0 0.00 0.00 0.00 47 1012.9
20260503015539 78 240 1.0 3.0 0.00 0.00 0.00 47 1013.0
20260503015037 78 255 0.0 4.0 0.00 0.00 0.00 47 1013.1
20260503014535 78 212 2.0 4.0 0.00 0.00 0.00 46 1013.1
20260503014034 78 199 1.0 5.0 0.00 0.00 0.00 46 1013.1
20260503013533 79 212 2.0 5.0 0.00 0.00 0.00 44 1013.2
20260503013039 79 197 2.0 5.0 0.00 0.00 0.00 43 1013.2
20260503012532 78 220 2.0 4.0 0.00 0.00 0.00 43 1013.2
20260503012031 78 203 2.0 4.0 0.00 0.00 0.00 44 1013.3
20260503011530 78 231 2.0 4.0 0.00 0.00 0.00 45 1013.3
20260503011029 78 211 1.0 5.0 0.00 0.00 0.00 45 1013.3
20260503010528 78 187 0.0 5.0 0.00 0.00 0.00 42 1013.3
20260503010028 78 205 3.0 6.0 0.00 0.00 0.00 46 1013.3
20260503005530 78 222 3.0 7.0 0.00 0.00 0.00 44 1013.3
20260503005030 78 193 4.0 7.0 0.00 0.00 0.00 47 1013.3
20260503004534 78 202 3.0 5.0 0.00 0.00 0.00 46 1013.4
20260503004024 78 193 1.0 5.0 0.00 0.00 0.00 46 1013.4
20260503003523 77 151 1.0 5.0 0.00 0.00 0.00 42 1013.5
20260503003027 77 193 3.0 5.0 0.00 0.00 0.00 47 1013.5
20260503002522 77 251 1.0 5.0 0.00 0.00 0.00 47 1013.5
20260503002021 77 228 1.0 5.0 0.00 0.00 0.00 48 1013.6
20260503001520 77 201 3.0 7.0 0.00 0.00 0.00 49 1013.7
20260503001020 77 176 3.0 8.0 0.00 0.00 0.00 48 1013.7
20260503000523 77 183 4.0 8.0 0.00 0.00 0.00 48 1013.8
20260503000024 77 190 2.0 7.0 0.00 0.00 0.00 46 1013.9
20260502235518 77 158 3.0 6.0 0.00 0.00 0.00 47 1013.9
20260502235017 77 226 3.0 6.0 0.00 0.00 0.00 46 1013.9
20260502234518 77 221 3.0 7.0 0.00 0.00 0.00 47 1013.9
20260502234015 77 210 2.0 6.0 0.00 0.00 0.00 46 1014.0
20260502233513 77 208 3.0 7.0 0.00 0.00 0.00 45 1014.1
20260502233027 77 170 3.0 7.0 0.00 0.00 0.00 44 1014.2
20260502232513 77 193 3.0 6.0 0.00 0.00 0.00 45 1014.2
20260502232013 76 227 3.0 6.0 0.00 0.00 0.00 44 1014.2
20260502231512 76 102 2.0 6.0 0.00 0.00 0.00 45 1014.3
20260502231011 76 160 3.0 6.0 0.00 0.00 0.00 44 1014.4
20260502230511 76 210 1.0 4.0 0.00 0.00 0.00 46 1014.4
20260502230009 76 283 1.0 6.0 0.00 0.00 0.00 47 1014.5
20260502225508 76 247 2.0 6.0 0.00 0.00 0.00 44 1014.6
20260502225008 76 210 3.0 7.0 0.00 0.00 0.00 44 1014.6
20260502224507 76 158 2.0 7.0 0.00 0.00 0.00 47 1014.7
20260502224008 76 293 2.0 6.0 0.00 0.00 0.00 47 1014.8
20260502223505 76 219 2.0 6.0 0.00 0.00 0.00 49 1014.8
20260502223003 76 154 3.0 7.0 0.00 0.00 0.00 49 1014.9
20260502222503 76 181 3.0 6.0 0.00 0.00 0.00 49 1015.0
20260502222002 76 213 2.0 6.0 0.00 0.00 0.00 49 1015.0
20260502221600 75 226 1.0 8.0 0.00 0.00 0.00 50 1015.1
20260502221059 75 204 2.0 8.0 0.00 0.00 0.00 50 1015.1
20260502220558 75 205 3.0 7.0 0.00 0.00 0.00 53 1015.2
20260502220057 74 228 1.0 4.0 0.00 0.00 0.00 51 1015.3